Time,TemperatureF,DewpointF,PressureIn,WindDirection,WindDirectionDegrees,WindSpeedMPH,WindSpeedGustMPH,Humidity,HourlyPrecipIn,Conditions,Clouds,dailyrainin,SoftwareType,DateUTC
2013-02-28 00:00:00,34.8,27.0,30.13,NW,315,2.0,5.0,73,0.00,,,0.00,Wunderground v.1.15,2013-02-28 06:00:00,
2013-02-28 00:06:00,34.9,27.1,30.13,NNW,336,3.0,5.0,73,0.00,,,0.00,Wunderground v.1.15,2013-02-28 06:06:00,
2013-02-28 00:12:00,34.9,27.1,30.13,NW,319,5.0,5.0,73,0.00,,,0.00,Wunderground v.1.15,2013-02-28 06:12:00,
2013-02-28 00:19:00,34.8,27.0,30.13,NW,326,5.0,6.0,73,0.00,,,0.00,Wunderground v.1.15,2013-02-28 06:19:00,
2013-02-28 00:24:00,34.7,27.3,30.13,North,10,4.0,7.0,74,0.00,,,0.00,Wunderground v.1.15,2013-02-28 06:24:00,
2013-02-28 00:30:00,34.6,27.2,30.13,NNE,15,5.0,5.0,74,0.00,,,0.00,Wunderground v.1.15,2013-02-28 06:30:00,
2013-02-28 00:36:00,34.4,27.0,30.13,NNW,334,4.0,5.0,74,0.00,,,0.00,Wunderground v.1.15,2013-02-28 06:36:00,
2013-02-28 00:42:00,34.4,27.3,30.14,North,360,3.0,4.0,75,0.00,,,0.00,Wunderground v.1.15,2013-02-28 06:42:00,
2013-02-28 00:49:00,34.4,27.3,30.14,North,355,4.0,5.0,75,0.00,,,0.00,Wunderground v.1.15,2013-02-28 06:49:00,
2013-02-28 00:54:00,34.4,27.3,30.14,NNE,27,5.0,6.0,75,0.00,,,0.00,Wunderground v.1.15,2013-02-28 06:54:00,
2013-02-28 01:00:00,34.3,27.2,30.13,NNW,343,4.0,4.0,75,0.00,,,0.00,Wunderground v.1.15,2013-02-28 07:00:00,
2013-02-28 01:06:00,34.1,27.3,30.13,NNW,341,3.0,7.0,76,0.00,,,0.00,Wunderground v.1.15,2013-02-28 07:06:00,
2013-02-28 01:12:00,34.2,27.4,30.13,NNW,333,4.0,9.0,76,0.00,,,0.00,Wunderground v.1.15,2013-02-28 07:12:00,
2013-02-28 01:18:00,34.1,27.3,30.13,North,355,4.0,9.0,76,0.00,,,0.00,Wunderground v.1.15,2013-02-28 07:18:00,
2013-02-28 01:24:00,34.0,27.2,30.13,NNW,327,4.0,5.0,76,0.00,,,0.00,Wunderground v.1.15,2013-02-28 07:24:00,
2013-02-28 01:30:00,34.1,27.3,30.13,North,355,4.0,4.0,76,0.00,,,0.00,Wunderground v.1.15,2013-02-28 07:30:00,
2013-02-28 01:36:00,34.0,27.2,30.13,NNW,334,4.0,6.0,76,0.00,,,0.00,Wunderground v.1.15,2013-02-28 07:36:00,
2013-02-28 01:42:00,34.0,27.2,30.14,North,349,4.0,4.0,76,0.00,,,0.00,Wunderground v.1.15,2013-02-28 07:42:00,
2013-02-28 01:49:00,34.0,27.2,30.13,NW,319,3.0,7.0,76,0.00,,,0.00,Wunderground v.1.15,2013-02-28 07:49:00,
2013-02-28 01:54:00,33.9,27.4,30.13,NW,326,3.0,4.0,77,0.00,,,0.00,Wunderground v.1.15,2013-02-28 07:54:00,
2013-02-28 02:00:00,33.8,27.4,30.14,NW,323,3.0,8.0,77,0.00,,,0.00,Wunderground v.1.15,2013-02-28 08:00:00,
2013-02-28 02:06:00,33.7,27.3,30.14,NW,317,3.0,8.0,77,0.00,,,0.00,Wunderground v.1.15,2013-02-28 08:06:00,
2013-02-28 02:12:00,33.6,27.2,30.14,NW,310,2.0,3.0,77,0.00,,,0.00,Wunderground v.1.15,2013-02-28 08:12:00,
2013-02-28 02:18:00,33.5,27.4,30.14,NW,310,1.0,3.0,78,0.00,,,0.00,Wunderground v.1.15,2013-02-28 08:18:00,
2013-02-28 02:24:00,33.4,27.3,30.14,NW,309,2.0,3.0,78,0.00,,,0.00,Wunderground v.1.15,2013-02-28 08:24:00,
2013-02-28 02:30:00,33.4,27.3,30.14,NW,304,2.0,2.0,78,0.00,,,0.00,Wunderground v.1.15,2013-02-28 08:30:00,
2013-02-28 02:36:00,33.4,27.3,30.15,WNW,286,2.0,5.0,78,0.00,,,0.00,Wunderground v.1.15,2013-02-28 08:36:00,
2013-02-28 02:42:00,33.3,27.2,30.14,WNW,288,2.0,2.0,78,0.00,,,0.00,Wunderground v.1.15,2013-02-28 08:42:00,
2013-02-28 02:49:00,33.2,27.1,30.15,WNW,294,2.0,3.0,78,0.00,,,0.00,Wunderground v.1.15,2013-02-28 08:49:00,
2013-02-28 02:54:00,33.1,27.3,30.15,WNW,294,2.0,4.0,79,0.00,,,0.00,Wunderground v.1.15,2013-02-28 08:54:00,
2013-02-28 03:00:00,33.0,27.2,30.15,West,276,2.0,2.0,79,0.00,,,0.00,Wunderground v.1.15,2013-02-28 09:00:00,
2013-02-28 03:06:00,32.9,27.1,30.15,West,280,1.0,3.0,79,0.00,,,0.00,Wunderground v.1.15,2013-02-28 09:06:00,
2013-02-28 03:12:00,32.8,27.0,30.15,WNW,294,1.0,2.0,79,0.00,,,0.00,Wunderground v.1.15,2013-02-28 09:12:00,
2013-02-28 03:19:00,32.8,27.0,30.15,WNW,302,2.0,2.0,79,0.00,,,0.00,Wunderground v.1.15,2013-02-28 09:19:00,
2013-02-28 03:24:00,32.8,27.0,30.15,WNW,302,2.0,4.0,79,0.00,,,0.00,Wunderground v.1.15,2013-02-28 09:24:00,
2013-02-28 03:30:00,32.6,27.1,30.15,NW,304,2.0,3.0,80,0.00,,,0.00,Wunderground v.1.15,2013-02-28 09:30:00,
2013-02-28 03:36:00,32.5,27.0,30.15,WNW,303,1.0,3.0,80,0.00,,,0.00,Wunderground v.1.15,2013-02-28 09:36:00,
2013-02-28 03:42:00,32.3,26.8,30.15,NW,306,1.0,4.0,80,0.00,,,0.00,Wunderground v.1.15,2013-02-28 09:42:00,
2013-02-28 03:49:00,32.4,26.9,30.14,WNW,298,2.0,6.0,80,0.00,,,0.00,Wunderground v.1.15,2013-02-28 09:49:00,
2013-02-28 03:54:00,32.4,26.9,30.14,NW,320,3.0,4.0,80,0.00,,,0.00,Wunderground v.1.15,2013-02-28 09:54:00,
2013-02-28 04:00:00,32.3,26.8,30.14,WNW,303,3.0,3.0,80,0.00,,,0.00,Wunderground v.1.15,2013-02-28 10:00:00,
2013-02-28 04:06:00,32.3,26.8,30.15,WNW,299,3.0,3.0,80,0.00,,,0.00,Wunderground v.1.15,2013-02-28 10:06:00,
2013-02-28 04:12:00,32.2,26.7,30.14,NW,311,3.0,5.0,80,0.00,,,0.00,Wunderground v.1.15,2013-02-28 10:12:00,
2013-02-28 04:18:00,32.1,26.6,30.15,WNW,300,3.0,5.0,80,0.00,,,0.00,Wunderground v.1.15,2013-02-28 10:18:00,
2013-02-28 04:24:00,32.0,26.5,30.15,NW,311,3.0,4.0,80,0.00,,,0.00,Wunderground v.1.15,2013-02-28 10:24:00,
2013-02-28 04:30:00,32.0,26.8,30.15,WNW,302,2.0,5.0,81,0.00,,,0.00,Wunderground v.1.15,2013-02-28 10:30:00,
2013-02-28 04:36:00,31.9,26.7,30.15,WNW,300,2.0,5.0,81,0.00,,,0.00,Wunderground v.1.15,2013-02-28 10:36:00,
2013-02-28 04:42:00,31.7,26.5,30.15,WNW,303,3.0,4.0,81,0.00,,,0.00,Wunderground v.1.15,2013-02-28 10:42:00,
2013-02-28 04:49:00,31.7,26.5,30.15,NW,307,3.0,6.0,81,0.00,,,0.00,Wunderground v.1.15,2013-02-28 10:49:00,
2013-02-28 04:54:00,31.6,26.4,30.15,WNW,301,2.0,3.0,81,0.00,,,0.00,Wunderground v.1.15,2013-02-28 10:54:00,
2013-02-28 05:00:00,31.5,26.3,30.15,NW,304,2.0,4.0,81,0.00,,,0.00,Wunderground v.1.15,2013-02-28 11:00:00,
2013-02-28 05:06:00,31.5,26.3,30.15,WNW,299,2.0,5.0,81,0.00,,,0.00,Wunderground v.1.15,2013-02-28 11:06:00,
2013-02-28 05:12:00,31.4,26.5,30.16,NW,310,2.0,5.0,82,0.00,,,0.00,Wunderground v.1.15,2013-02-28 11:12:00,
2013-02-28 05:18:00,31.5,26.6,30.16,WNW,284,3.0,5.0,82,0.00,,,0.00,Wunderground v.1.15,2013-02-28 11:18:00,
2013-02-28 05:24:00,31.5,26.6,30.16,NW,326,3.0,4.0,82,0.00,,,0.00,Wunderground v.1.15,2013-02-28 11:24:00,
2013-02-28 05:30:00,31.6,26.7,30.16,NW,311,3.0,3.0,82,0.00,,,0.00,Wunderground v.1.15,2013-02-28 11:30:00,
2013-02-28 05:36:00,31.6,26.7,30.16,NW,315,3.0,5.0,82,0.00,,,0.00,Wunderground v.1.15,2013-02-28 11:36:00,
2013-02-28 05:42:00,31.6,26.7,30.16,WNW,294,2.0,3.0,82,0.00,,,0.00,Wunderground v.1.15,2013-02-28 11:42:00,
2013-02-28 05:48:00,31.7,26.5,30.16,NW,321,3.0,8.0,81,0.00,,,0.00,Wunderground v.1.15,2013-02-28 11:48:00,
2013-02-28 05:54:00,31.9,26.7,30.17,NW,304,3.0,4.0,81,0.00,,,0.00,Wunderground v.1.15,2013-02-28 11:54:00,
2013-02-28 06:00:00,31.7,26.5,30.17,NW,311,2.0,3.0,81,0.00,,,0.00,Wunderground v.1.15,2013-02-28 12:00:00,
2013-02-28 06:06:00,31.7,26.5,30.17,NW,311,2.0,3.0,81,0.00,,,0.00,Wunderground v.1.15,2013-02-28 12:06:00,
2013-02-28 06:12:00,31.6,26.4,30.17,NW,309,3.0,4.0,81,0.00,,,0.00,Wunderground v.1.15,2013-02-28 12:12:00,
2013-02-28 06:19:00,31.4,26.2,30.17,NW,304,3.0,6.0,81,0.00,,,0.00,Wunderground v.1.15,2013-02-28 12:19:00,
2013-02-28 06:24:00,31.4,26.2,30.17,NW,304,3.0,5.0,81,0.00,,,0.00,Wunderground v.1.15,2013-02-28 12:24:00,
2013-02-28 06:30:00,31.2,26.0,30.17,WNW,295,3.0,3.0,81,0.00,,,0.00,Wunderground v.1.15,2013-02-28 12:30:00,
2013-02-28 06:36:00,31.2,26.3,30.17,NW,311,3.0,3.0,82,0.00,,,0.00,Wunderground v.1.15,2013-02-28 12:36:00,
2013-02-28 06:42:00,31.1,26.2,30.17,WNW,291,3.0,6.0,82,0.00,,,0.00,Wunderground v.1.15,2013-02-28 12:42:00,
2013-02-28 06:49:00,31.0,26.1,30.17,NW,304,3.0,6.0,82,0.00,,,0.00,Wunderground v.1.15,2013-02-28 12:49:00,
2013-02-28 06:54:00,30.9,26.1,30.17,NW,315,2.0,3.0,82,0.00,,,0.00,Wunderground v.1.15,2013-02-28 12:54:00,
2013-02-28 07:00:00,30.8,26.0,30.18,NW,304,3.0,3.0,82,0.00,,,0.00,Wunderground v.1.15,2013-02-28 13:00:00,
2013-02-28 07:06:00,30.8,26.0,30.18,NW,326,3.0,4.0,82,0.00,,,0.00,Wunderground v.1.15,2013-02-28 13:06:00,
2013-02-28 07:12:00,30.8,26.0,30.18,West,274,2.0,5.0,82,0.00,,,0.00,Wunderground v.1.15,2013-02-28 13:12:00,
2013-02-28 07:19:00,30.8,26.0,30.18,WNW,300,3.0,5.0,82,0.00,,,0.00,Wunderground v.1.15,2013-02-28 13:19:00,
2013-02-28 07:24:00,31.0,26.1,30.19,NW,315,4.0,5.0,82,0.00,,,0.00,Wunderground v.1.15,2013-02-28 13:24:00,
2013-02-28 07:30:00,31.2,26.3,30.19,NNW,333,3.0,3.0,82,0.00,,,0.00,Wunderground v.1.15,2013-02-28 13:30:00,
2013-02-28 07:36:00,31.4,26.2,30.19,NW,319,3.0,7.0,81,0.00,,,0.00,Wunderground v.1.15,2013-02-28 13:36:00,
2013-02-28 07:42:00,31.6,26.1,30.19,NW,307,3.0,3.0,80,0.00,,,0.00,Wunderground v.1.15,2013-02-28 13:42:00,
2013-02-28 07:49:00,31.9,26.4,30.19,North,9,4.0,7.0,80,0.00,,,0.00,Wunderground v.1.15,2013-02-28 13:49:00,
2013-02-28 07:54:00,32.1,26.3,30.18,NW,324,4.0,10.0,79,0.00,,,0.00,Wunderground v.1.15,2013-02-28 13:54:00,
2013-02-28 08:00:00,32.3,26.5,30.19,NW,318,5.0,5.0,79,0.00,,,0.00,Wunderground v.1.15,2013-02-28 14:00:00,
2013-02-28 08:06:00,32.5,26.4,30.19,NNW,328,4.0,7.0,78,0.00,,,0.00,Wunderground v.1.15,2013-02-28 14:06:00,
2013-02-28 08:12:00,32.9,26.8,30.19,NNW,348,4.0,5.0,78,0.00,,,0.00,Wunderground v.1.15,2013-02-28 14:12:00,
2013-02-28 08:18:00,33.2,26.8,30.19,NNW,333,4.0,5.0,77,0.00,,,0.00,Wunderground v.1.15,2013-02-28 14:18:00,
2013-02-28 08:24:00,33.4,27.0,30.19,NNW,340,4.0,9.0,77,0.00,,,0.00,Wunderground v.1.15,2013-02-28 14:24:00,
2013-02-28 08:30:00,33.7,26.9,30.20,NW,323,4.0,4.0,76,0.00,,,0.00,Wunderground v.1.15,2013-02-28 14:30:00,
2013-02-28 08:36:00,34.2,27.1,30.20,NNW,343,4.0,7.0,75,0.00,,,0.00,Wunderground v.1.15,2013-02-28 14:36:00,
2013-02-28 08:42:00,34.4,27.3,30.19,NNW,338,5.0,7.0,75,0.00,,,0.00,Wunderground v.1.15,2013-02-28 14:42:00,
2013-02-28 08:48:00,34.5,27.4,30.20,NNW,348,5.0,7.0,75,0.00,,,0.00,Wunderground v.1.15,2013-02-28 14:48:00,
2013-02-28 08:54:00,35.1,27.6,30.20,NNW,336,4.0,7.0,74,0.00,,,0.00,Wunderground v.1.15,2013-02-28 14:54:00,
2013-02-28 09:00:00,35.3,27.5,30.19,NNW,332,5.0,5.0,73,0.00,,,0.00,Wunderground v.1.15,2013-02-28 15:00:00,
2013-02-28 09:06:00,35.6,27.5,30.20,North,9,5.0,11.0,72,0.00,,,0.00,Wunderground v.1.15,2013-02-28 15:06:00,
2013-02-28 09:12:00,36.1,27.9,30.20,NNW,332,4.0,4.0,72,0.00,,,0.00,Wunderground v.1.15,2013-02-28 15:12:00,
2013-02-28 09:18:00,36.3,27.4,30.20,NW,322,6.0,10.0,70,0.00,,,0.00,Wunderground v.1.15,2013-02-28 15:18:00,
2013-02-28 09:24:00,36.4,27.9,30.20,North,355,6.0,6.0,71,0.00,,,0.00,Wunderground v.1.15,2013-02-28 15:24:00,
2013-02-28 09:30:00,36.7,27.5,30.20,NNW,331,5.0,6.0,69,0.00,,,0.00,Wunderground v.1.15,2013-02-28 15:30:00,
2013-02-28 09:36:00,36.6,27.4,30.20,North,355,6.0,11.0,69,0.00,,,0.00,Wunderground v.1.15,2013-02-28 15:36:00,
2013-02-28 09:42:00,36.6,27.7,30.20,NNE,18,6.0,7.0,70,0.00,,,0.00,Wunderground v.1.15,2013-02-28 15:42:00,
2013-02-28 09:49:00,37.1,27.9,30.20,NNW,336,5.0,7.0,69,0.00,,,0.00,Wunderground v.1.15,2013-02-28 15:49:00,
2013-02-28 09:54:00,37.5,28.2,30.20,NNW,331,5.0,10.0,69,0.00,,,0.00,Wunderground v.1.15,2013-02-28 15:54:00,
2013-02-28 10:00:00,38.1,28.1,30.19,NNW,335,5.0,12.0,67,0.00,,,0.00,Wunderground v.1.15,2013-02-28 16:00:00,
2013-02-28 10:06:00,38.4,28.0,30.19,NNE,24,6.0,12.0,66,0.00,,,0.00,Wunderground v.1.15,2013-02-28 16:06:00,
2013-02-28 10:14:00,38.6,28.2,30.19,NNE,14,7.0,7.0,66,0.00,,,0.00,Wunderground v.1.15,2013-02-28 16:14:00,
2013-02-28 10:20:00,38.5,27.7,30.19,NNW,336,7.0,12.0,65,0.00,,,0.00,Wunderground v.1.15,2013-02-28 16:20:00,
2013-02-28 10:26:00,38.7,27.9,30.19,NW,325,7.0,7.0,65,0.00,,,0.00,Wunderground v.1.15,2013-02-28 16:26:00,
2013-02-28 10:32:00,38.8,28.0,30.19,NNW,340,6.0,7.0,65,0.00,,,0.00,Wunderground v.1.15,2013-02-28 16:32:00,
2013-02-28 10:38:00,39.2,28.0,30.19,NW,321,6.0,10.0,64,0.00,,,0.00,Wunderground v.1.15,2013-02-28 16:38:00,
2013-02-28 10:44:00,39.5,27.9,30.19,NW,310,6.0,6.0,63,0.00,,,0.00,Wunderground v.1.15,2013-02-28 16:44:00,
2013-02-28 10:50:00,39.7,28.1,30.19,NNW,348,6.0,7.0,63,0.00,,,0.00,Wunderground v.1.15,2013-02-28 16:50:00,
2013-02-28 10:56:00,39.8,28.2,30.19,NNW,346,6.0,12.0,63,0.00,,,0.00,Wunderground v.1.15,2013-02-28 16:56:00,
2013-02-28 11:02:00,39.7,28.1,30.19,WNW,302,7.0,10.0,63,0.00,,,0.00,Wunderground v.1.15,2013-02-28 17:02:00,
2013-02-28 11:08:00,40.3,28.7,30.19,NNW,336,6.0,10.0,63,0.00,,,0.00,Wunderground v.1.15,2013-02-28 17:08:00,
2013-02-28 11:14:00,40.3,27.9,30.19,NNE,33,6.0,11.0,61,0.00,,,0.00,Wunderground v.1.15,2013-02-28 17:14:00,
2013-02-28 11:20:00,40.5,28.9,30.19,NNE,26,6.0,6.0,63,0.00,,,0.00,Wunderground v.1.15,2013-02-28 17:20:00,
2013-02-28 11:26:00,41.1,28.7,30.19,NNW,327,5.0,7.0,61,0.00,,,0.00,Wunderground v.1.15,2013-02-28 17:26:00,
2013-02-28 11:32:00,41.2,28.4,30.19,NNW,331,6.0,13.0,60,0.00,,,0.00,Wunderground v.1.15,2013-02-28 17:32:00,
2013-02-28 11:39:00,41.1,28.7,30.19,NNW,327,7.0,13.0,61,0.00,,,0.00,Wunderground v.1.15,2013-02-28 17:39:00,
2013-02-28 11:44:00,41.6,29.1,30.19,NNW,332,6.0,7.0,61,0.00,,,0.00,Wunderground v.1.15,2013-02-28 17:44:00,
2013-02-28 11:50:00,42.3,29.0,30.19,NNE,13,5.0,5.0,59,0.00,,,0.00,Wunderground v.1.15,2013-02-28 17:50:00,
2013-02-28 11:56:00,42.6,28.8,30.19,NNE,14,6.0,7.0,58,0.00,,,0.00,Wunderground v.1.15,2013-02-28 17:56:00,
2013-02-28 12:02:00,42.8,29.0,30.19,NNW,348,6.0,6.0,58,0.00,,,0.00,Wunderground v.1.15,2013-02-28 18:02:00,
2013-02-28 12:08:00,42.7,28.9,30.19,NW,321,6.0,10.0,58,0.00,,,0.00,Wunderground v.1.15,2013-02-28 18:08:00,
2013-02-28 12:14:00,42.8,29.0,30.18,NNW,347,6.0,7.0,58,0.00,,,0.00,Wunderground v.1.15,2013-02-28 18:14:00,
2013-02-28 12:20:00,42.8,28.6,30.18,NNW,328,5.0,11.0,57,0.00,,,0.00,Wunderground v.1.15,2013-02-28 18:20:00,
2013-02-28 12:26:00,42.5,28.8,30.18,NNW,341,6.0,11.0,58,0.00,,,0.00,Wunderground v.1.15,2013-02-28 18:26:00,
2013-02-28 12:32:00,42.4,28.7,30.18,NNW,331,5.0,6.0,58,0.00,,,0.00,Wunderground v.1.15,2013-02-28 18:32:00,
2013-02-28 12:39:00,42.8,29.0,30.18,NNE,17,5.0,6.0,58,0.00,,,0.00,Wunderground v.1.15,2013-02-28 18:39:00,
2013-02-28 12:44:00,43.6,28.9,30.18,NNW,333,5.0,10.0,56,0.00,,,0.00,Wunderground v.1.15,2013-02-28 18:44:00,
2013-02-28 12:50:00,43.7,29.0,30.17,NNW,344,5.0,5.0,56,0.00,,,0.00,Wunderground v.1.15,2013-02-28 18:50:00,
2013-02-28 12:56:00,43.4,29.2,30.17,North,9,6.0,9.0,57,0.00,,,0.00,Wunderground v.1.15,2013-02-28 18:56:00,
2013-02-28 13:02:00,43.6,28.9,30.17,West,263,5.0,6.0,56,0.00,,,0.00,Wunderground v.1.15,2013-02-28 19:02:00,
2013-02-28 13:08:00,43.4,28.3,30.17,NNW,347,6.0,8.0,55,0.00,,,0.00,Wunderground v.1.15,2013-02-28 19:08:00,
2013-02-28 13:14:00,43.2,29.0,30.17,NW,326,7.0,7.0,57,0.00,,,0.00,Wunderground v.1.15,2013-02-28 19:14:00,
2013-02-28 13:20:00,43.5,29.3,30.17,NNW,332,5.0,10.0,57,0.00,,,0.00,Wunderground v.1.15,2013-02-28 19:20:00,
2013-02-28 13:26:00,43.3,28.6,30.17,NNW,338,5.0,10.0,56,0.00,,,0.00,Wunderground v.1.15,2013-02-28 19:26:00,
2013-02-28 13:32:00,43.1,28.9,30.16,North,360,5.0,6.0,57,0.00,,,0.00,Wunderground v.1.15,2013-02-28 19:32:00,
2013-02-28 13:38:00,43.6,29.4,30.16,North,360,5.0,7.0,57,0.00,,,0.00,Wunderground v.1.15,2013-02-28 19:38:00,
2013-02-28 13:44:00,44.0,29.3,30.16,North,355,6.0,7.0,56,0.00,,,0.00,Wunderground v.1.15,2013-02-28 19:44:00,
2013-02-28 13:50:00,44.0,29.7,30.16,NNW,340,5.0,9.0,57,0.00,,,0.00,Wunderground v.1.15,2013-02-28 19:50:00,
2013-02-28 13:56:00,44.8,30.0,30.16,NNE,13,5.0,9.0,56,0.00,,,0.00,Wunderground v.1.15,2013-02-28 19:56:00,
2013-02-28 14:02:00,44.9,29.2,30.16,NW,306,6.0,6.0,54,0.00,,,0.00,Wunderground v.1.15,2013-02-28 20:02:00,
2013-02-28 14:08:00,44.5,29.8,30.16,NNW,330,6.0,11.0,56,0.00,,,0.00,Wunderground v.1.15,2013-02-28 20:08:00,
2013-02-28 14:14:00,44.8,30.0,30.16,NNE,14,6.0,7.0,56,0.00,,,0.00,Wunderground v.1.15,2013-02-28 20:14:00,
2013-02-28 14:20:00,44.5,29.3,30.15,NNW,340,5.0,9.0,55,0.00,,,0.00,Wunderground v.1.15,2013-02-28 20:20:00,
2013-02-28 14:26:00,43.6,29.4,30.15,NNW,329,7.0,11.0,57,0.00,,,0.00,Wunderground v.1.15,2013-02-28 20:26:00,
2013-02-28 14:32:00,44.3,30.0,30.15,NNW,331,7.0,14.0,57,0.00,,,0.00,Wunderground v.1.15,2013-02-28 20:32:00,
2013-02-28 14:39:00,44.7,30.0,30.16,NNE,29,7.0,14.0,56,0.00,,,0.00,Wunderground v.1.15,2013-02-28 20:39:00,
2013-02-28 14:44:00,44.4,29.7,30.16,NNW,348,7.0,11.0,56,0.00,,,0.00,Wunderground v.1.15,2013-02-28 20:44:00,
2013-02-28 14:50:00,43.7,29.9,30.16,NNW,344,7.0,7.0,58,0.00,,,0.00,Wunderground v.1.15,2013-02-28 20:50:00,
2013-02-28 14:56:00,43.1,29.3,30.16,NNW,348,8.0,11.0,58,0.00,,,0.00,Wunderground v.1.15,2013-02-28 20:56:00,
2013-02-28 15:02:00,42.9,29.5,30.16,NNE,13,7.0,8.0,59,0.00,,,0.00,Wunderground v.1.15,2013-02-28 21:02:00,
2013-02-28 15:10:00,42.9,29.1,30.16,NNW,339,7.0,13.0,58,0.00,,,0.00,Wunderground v.1.15,2013-02-28 21:10:00,
2013-02-28 15:16:00,43.1,29.3,30.16,NNW,330,7.0,13.0,58,0.00,,,0.00,Wunderground v.1.15,2013-02-28 21:16:00,
2013-02-28 15:22:00,43.4,29.6,30.16,NW,312,7.0,10.0,58,0.00,,,0.00,Wunderground v.1.15,2013-02-28 21:22:00,
2013-02-28 15:29:00,43.7,29.5,30.17,North,360,8.0,13.0,57,0.00,,,0.00,Wunderground v.1.15,2013-02-28 21:29:00,
2013-02-28 15:34:00,43.3,29.1,30.17,NNW,341,8.0,12.0,57,0.00,,,0.00,Wunderground v.1.15,2013-02-28 21:34:00,
2013-02-28 15:40:00,43.4,29.6,30.17,NNW,348,7.0,7.0,58,0.00,,,0.00,Wunderground v.1.15,2013-02-28 21:40:00,
2013-02-28 15:46:00,43.0,29.2,30.16,NNW,334,7.0,9.0,58,0.00,,,0.00,Wunderground v.1.15,2013-02-28 21:46:00,
2013-02-28 15:52:00,43.0,29.2,30.16,NNE,19,7.0,11.0,58,0.00,,,0.00,Wunderground v.1.15,2013-02-28 21:52:00,
2013-02-28 15:59:00,43.1,29.3,30.17,NW,319,7.0,13.0,58,0.00,,,0.00,Wunderground v.1.15,2013-02-28 21:59:00,
2013-02-28 16:04:00,43.1,29.3,30.17,NNE,14,7.0,12.0,58,0.00,,,0.00,Wunderground v.1.15,2013-02-28 22:04:00,
2013-02-28 16:10:00,42.9,29.1,30.17,NW,315,7.0,8.0,58,0.00,,,0.00,Wunderground v.1.15,2013-02-28 22:10:00,
2013-02-28 16:16:00,42.6,29.7,30.16,NNE,18,5.0,8.0,60,0.00,,,0.00,Wunderground v.1.15,2013-02-28 22:16:00,
2013-02-28 16:22:00,42.7,28.9,30.16,NNE,19,4.0,5.0,58,0.00,,,0.00,Wunderground v.1.15,2013-02-28 22:22:00,
2013-02-28 16:30:00,42.4,29.5,30.16,NNE,14,6.0,6.0,60,0.00,,,0.00,Wunderground v.1.15,2013-02-28 22:30:00,
2013-02-28 16:36:00,42.0,29.5,30.16,North,360,6.0,11.0,61,0.00,,,0.00,Wunderground v.1.15,2013-02-28 22:36:00,
2013-02-28 16:42:00,42.0,29.5,30.16,NNE,15,5.0,6.0,61,0.00,,,0.00,Wunderground v.1.15,2013-02-28 22:42:00,
2013-02-28 16:49:00,41.8,29.3,30.16,NNE,21,6.0,9.0,61,0.00,,,0.00,Wunderground v.1.15,2013-02-28 22:49:00,
2013-02-28 16:54:00,41.6,29.1,30.16,NNW,337,6.0,6.0,61,0.00,,,0.00,Wunderground v.1.15,2013-02-28 22:54:00,
2013-02-28 17:00:00,41.6,29.1,30.16,NNE,29,5.0,6.0,61,0.00,,,0.00,Wunderground v.1.15,2013-02-28 23:00:00,
2013-02-28 17:06:00,41.6,29.1,30.17,NNE,18,5.0,6.0,61,0.00,,,0.00,Wunderground v.1.15,2013-02-28 23:06:00,
2013-02-28 17:12:00,41.4,29.3,30.17,NNE,30,5.0,9.0,62,0.00,,,0.00,Wunderground v.1.15,2013-02-28 23:12:00,
2013-02-28 17:19:00,41.1,29.1,30.17,NW,325,6.0,10.0,62,0.00,,,0.00,Wunderground v.1.15,2013-02-28 23:19:00,
2013-02-28 17:24:00,41.0,29.4,30.17,NNE,30,5.0,10.0,63,0.00,,,0.00,Wunderground v.1.15,2013-02-28 23:24:00,
2013-02-28 17:30:00,40.7,29.5,30.17,NNE,15,5.0,5.0,64,0.00,,,0.00,Wunderground v.1.15,2013-02-28 23:30:00,
2013-02-28 17:36:00,40.6,29.0,30.17,NNE,18,5.0,11.0,63,0.00,,,0.00,Wunderground v.1.15,2013-02-28 23:36:00,
2013-02-28 17:42:00,40.4,29.2,30.17,NNE,26,6.0,6.0,64,0.00,,,0.00,Wunderground v.1.15,2013-02-28 23:42:00,
2013-02-28 17:49:00,40.2,28.6,30.17,North,360,6.0,8.0,63,0.00,,,0.00,Wunderground v.1.15,2013-02-28 23:49:00,
2013-02-28 17:54:00,40.0,28.4,30.17,NNW,327,6.0,9.0,63,0.00,,,0.00,Wunderground v.1.15,2013-02-28 23:54:00,
2013-02-28 18:00:00,39.9,28.7,30.17,NNE,22,5.0,7.0,64,0.00,,,0.00,Wunderground v.1.15,2013-03-01 00:00:00,
2013-02-28 18:06:00,40.0,28.8,30.18,NNE,24,4.0,10.0,64,0.00,,,0.00,Wunderground v.1.15,2013-03-01 00:06:00,
2013-02-28 18:12:00,39.8,28.6,30.18,NNE,14,6.0,9.0,64,0.00,,,0.00,Wunderground v.1.15,2013-03-01 00:12:00,
2013-02-28 18:18:00,39.7,28.5,30.17,NNE,17,6.0,9.0,64,0.00,,,0.00,Wunderground v.1.15,2013-03-01 00:18:00,
2013-02-28 18:24:00,39.5,28.3,30.18,NNE,25,5.0,6.0,64,0.00,,,0.00,Wunderground v.1.15,2013-03-01 00:24:00,
2013-02-28 18:30:00,39.4,28.2,30.18,NNE,17,5.0,5.0,64,0.00,,,0.00,Wunderground v.1.15,2013-03-01 00:30:00,
2013-02-28 18:36:00,39.3,28.1,30.18,NNE,15,4.0,5.0,64,0.00,,,0.00,Wunderground v.1.15,2013-03-01 00:36:00,
2013-02-28 18:42:00,39.3,28.5,30.18,NNE,22,4.0,4.0,65,0.00,,,0.00,Wunderground v.1.15,2013-03-01 00:42:00,
2013-02-28 18:49:00,39.2,28.4,30.19,North,10,3.0,9.0,65,0.00,,,0.00,Wunderground v.1.15,2013-03-01 00:49:00,
2013-02-28 18:54:00,39.1,28.3,30.19,NNE,15,4.0,4.0,65,0.00,,,0.00,Wunderground v.1.15,2013-03-01 00:54:00,
2013-02-28 19:00:00,39.1,28.3,30.18,NNE,22,3.0,8.0,65,0.00,,,0.00,Wunderground v.1.15,2013-03-01 01:00:00,
2013-02-28 19:06:00,39.0,28.2,30.18,NNE,19,4.0,8.0,65,0.00,,,0.00,Wunderground v.1.15,2013-03-01 01:06:00,
2013-02-28 19:12:00,38.9,28.1,30.18,NNE,24,4.0,6.0,65,0.00,,,0.00,Wunderground v.1.15,2013-03-01 01:12:00,
2013-02-28 19:18:00,38.9,27.8,30.19,NNW,338,3.0,6.0,64,0.00,,,0.00,Wunderground v.1.15,2013-03-01 01:18:00,
2013-02-28 19:24:00,38.8,28.0,30.19,North,360,3.0,5.0,65,0.00,,,0.00,Wunderground v.1.15,2013-03-01 01:24:00,
2013-02-28 19:30:00,38.7,27.9,30.19,North,355,4.0,4.0,65,0.00,,,0.00,Wunderground v.1.15,2013-03-01 01:30:00,
2013-02-28 19:36:00,38.6,27.8,30.19,North,5,5.0,8.0,65,0.00,,,0.00,Wunderground v.1.15,2013-03-01 01:36:00,
2013-02-28 19:42:00,38.5,27.7,30.19,North,349,5.0,6.0,65,0.00,,,0.00,Wunderground v.1.15,2013-03-01 01:42:00,
2013-02-28 19:49:00,38.4,28.0,30.19,NNE,19,4.0,6.0,66,0.00,,,0.00,Wunderground v.1.15,2013-03-01 01:49:00,
2013-02-28 19:54:00,38.3,27.9,30.20,North,11,5.0,8.0,66,0.00,,,0.00,Wunderground v.1.15,2013-03-01 01:54:00,
2013-02-28 20:00:00,38.2,27.5,30.19,NNE,12,5.0,5.0,65,0.00,,,0.00,Wunderground v.1.15,2013-03-01 02:00:00,
2013-02-28 20:06:00,38.2,27.5,30.19,NNE,14,3.0,5.0,65,0.00,,,0.00,Wunderground v.1.15,2013-03-01 02:06:00,
2013-02-28 20:12:00,38.2,27.5,30.19,NNE,22,3.0,5.0,65,0.00,,,0.00,Wunderground v.1.15,2013-03-01 02:12:00,
2013-02-28 20:18:00,38.1,27.0,30.19,NNE,13,4.0,12.0,64,0.00,,,0.00,Wunderground v.1.15,2013-03-01 02:18:00,
2013-02-28 20:24:00,38.0,26.9,30.19,NNE,24,5.0,6.0,64,0.00,,,0.00,Wunderground v.1.15,2013-03-01 02:24:00,
2013-02-28 20:30:00,38.0,26.9,30.19,NNE,24,4.0,8.0,64,0.00,,,0.00,Wunderground v.1.15,2013-03-01 02:30:00,
2013-02-28 20:36:00,37.9,27.2,30.19,NNW,338,5.0,8.0,65,0.00,,,0.00,Wunderground v.1.15,2013-03-01 02:36:00,
2013-02-28 20:42:00,37.8,27.1,30.20,NNE,19,5.0,5.0,65,0.00,,,0.00,Wunderground v.1.15,2013-03-01 02:42:00,
2013-02-28 20:48:00,37.7,27.4,30.20,North,11,5.0,6.0,66,0.00,,,0.00,Wunderground v.1.15,2013-03-01 02:48:00,
2013-02-28 20:54:00,37.7,27.7,30.20,NNE,21,4.0,6.0,67,0.00,,,0.00,Wunderground v.1.15,2013-03-01 02:54:00,
2013-02-28 21:00:00,37.7,27.7,30.20,NNE,21,3.0,3.0,67,0.00,,,0.00,Wunderground v.1.15,2013-03-01 03:00:00,
2013-02-28 21:06:00,37.5,27.5,30.20,NNE,16,4.0,4.0,67,0.00,,,0.00,Wunderground v.1.15,2013-03-01 03:06:00,
2013-02-28 21:12:00,37.4,27.1,30.20,North,360,4.0,5.0,66,0.00,,,0.00,Wunderground v.1.15,2013-03-01 03:12:00,
2013-02-28 21:19:00,37.3,27.3,30.20,NNE,24,4.0,6.0,67,0.00,,,0.00,Wunderground v.1.15,2013-03-01 03:19:00,
2013-02-28 21:30:00,37.3,27.3,30.21,North,9,4.0,10.0,67,0.00,,,0.00,Wunderground v.1.15,2013-03-01 03:30:00,
2013-02-28 21:36:00,37.2,27.2,30.21,NNW,348,4.0,10.0,67,0.00,,,0.00,Wunderground v.1.15,2013-03-01 03:36:00,
2013-02-28 21:42:00,37.2,27.2,30.20,NNW,333,4.0,9.0,67,0.00,,,0.00,Wunderground v.1.15,2013-03-01 03:42:00,
2013-02-28 21:48:00,37.1,27.5,30.21,NNE,16,4.0,9.0,68,0.00,,,0.00,Wunderground v.1.15,2013-03-01 03:48:00,
2013-02-28 21:54:00,37.1,27.5,30.20,North,355,5.0,8.0,68,0.00,,,0.00,Wunderground v.1.15,2013-03-01 03:54:00,
2013-02-28 22:04:00,37.0,27.4,30.20,North,360,4.0,6.0,68,0.00,,,0.00,Wunderground v.1.15,2013-03-01 04:04:00,
2013-02-28 22:10:00,37.0,27.4,30.21,North,11,4.0,7.0,68,0.00,,,0.00,Wunderground v.1.15,2013-03-01 04:10:00,
2013-02-28 22:16:00,36.8,27.2,30.20,NNE,13,5.0,9.0,68,0.00,,,0.00,Wunderground v.1.15,2013-03-01 04:16:00,
2013-02-28 22:22:00,36.7,27.1,30.20,North,355,6.0,10.0,68,0.00,,,0.00,Wunderground v.1.15,2013-03-01 04:22:00,
2013-02-28 22:30:00,36.4,26.5,30.20,North,10,7.0,14.0,67,0.00,,,0.00,Wunderground v.1.15,2013-03-01 04:30:00,
2013-02-28 22:36:00,36.3,26.7,30.20,NNW,345,8.0,8.0,68,0.00,,,0.00,Wunderground v.1.15,2013-03-01 04:36:00,
2013-02-28 22:42:00,36.3,26.4,30.20,NNE,15,6.0,9.0,67,0.00,,,0.00,Wunderground v.1.15,2013-03-01 04:42:00,
2013-02-28 22:49:00,36.2,26.6,30.20,NNW,344,6.0,13.0,68,0.00,,,0.00,Wunderground v.1.15,2013-03-01 04:49:00,
2013-02-28 22:54:00,36.1,26.6,30.20,NNW,348,6.0,6.0,68,0.00,,,0.00,Wunderground v.1.15,2013-03-01 04:54:00,
2013-02-28 23:00:00,36.0,26.5,30.20,NNE,22,6.0,6.0,68,0.00,,,0.00,Wunderground v.1.15,2013-03-01 05:00:00,
2013-02-28 23:04:00,36.0,26.5,30.20,NNE,24,5.0,6.0,68,0.00,,,0.00,Wunderground v.1.15,2013-03-01 05:04:00,
2013-02-28 23:06:00,36.0,26.1,30.20,NNE,24,4.0,6.0,67,0.00,,,0.00,Wunderground v.1.15,2013-03-01 05:06:00,
2013-02-28 23:09:00,35.9,26.0,30.20,North,360,4.0,13.0,67,0.00,,,0.00,Wunderground v.1.15,2013-03-01 05:09:00,
2013-02-28 23:10:00,35.9,26.0,30.20,NNW,341,4.0,5.0,67,0.00,,,0.00,Wunderground v.1.15,2013-03-01 05:10:00,
2013-02-28 23:16:00,35.7,25.8,30.20,NNW,340,5.0,6.0,67,0.00,,,0.00,Wunderground v.1.15,2013-03-01 05:16:00,
2013-02-28 23:22:00,35.6,26.1,30.20,NNW,338,4.0,5.0,68,0.00,,,0.00,Wunderground v.1.15,2013-03-01 05:22:00,
2013-02-28 23:29:00,35.6,26.1,30.20,NNE,17,5.0,6.0,68,0.00,,,0.00,Wunderground v.1.15,2013-03-01 05:29:00,
2013-02-28 23:34:00,35.6,26.1,30.20,NW,323,5.0,9.0,68,0.00,,,0.00,Wunderground v.1.15,2013-03-01 05:34:00,
2013-02-28 23:40:00,35.6,26.1,30.20,North,360,3.0,3.0,68,0.00,,,0.00,Wunderground v.1.15,2013-03-01 05:40:00,
2013-02-28 23:46:00,35.6,26.1,30.19,North,355,3.0,3.0,68,0.00,,,0.00,Wunderground v.1.15,2013-03-01 05:46:00,
2013-02-28 23:52:00,35.6,26.1,30.20,North,9,3.0,4.0,68,0.00,,,0.00,Wunderground v.1.15,2013-03-01 05:52:00,
2013-02-28 23:59:00,35.6,26.1,30.19,NNE,17,3.0,9.0,68,0.00,,,0.00,Wunderground v.1.15,2013-03-01 05:59:00,